Time,TemperatureF,DewpointF,PressureIn,WindDirection,WindDirectionDegrees,WindSpeedMPH,WindSpeedGustMPH,Humidity,HourlyPrecipIn,Conditions,Clouds,dailyrainin,SolarRadiationWatts/m^2,SoftwareType,DateUTC
2013-03-05 00:00:00,74.1,32.9,29.51,South,191,2.0,9.0,22,0.00,,---,0.00,0.00,VWS V14.00,2013-03-05 06:00:00,
2013-03-05 00:05:00,74.2,31.8,29.50,SSW,192,3.0,9.0,21,0.00,,---,0.00,0.00,VWS V14.00,2013-03-05 06:05:00,
2013-03-05 00:10:00,74.3,31.9,29.50,SSW,199,4.0,9.0,21,0.00,,---,0.00,0.00,VWS V14.00,2013-03-05 06:10:00,
2013-03-05 00:15:00,74.3,31.9,29.51,SSW,199,2.0,7.0,21,0.00,,---,0.00,0.00,VWS V14.00,2013-03-05 06:15:00,
2013-03-05 00:20:00,74.4,32.0,29.51,SSW,199,4.0,10.0,21,0.00,,---,0.00,0.00,VWS V14.00,2013-03-05 06:20:00,
2013-03-05 00:25:00,74.6,32.1,29.51,SSW,195,4.0,10.0,21,0.00,,---,0.00,0.00,VWS V14.00,2013-03-05 06:25:00,
2013-03-05 00:30:00,74.8,32.3,29.51,SSW,201,3.0,10.0,21,0.00,,---,0.00,0.00,VWS V14.00,2013-03-05 06:30:00,
2013-03-05 00:35:00,74.8,32.3,29.52,SSW,198,4.0,12.0,21,0.00,,---,0.00,0.00,VWS V14.00,2013-03-05 06:35:00,
2013-03-05 00:40:00,74.8,32.3,29.52,SSW,197,2.0,12.0,21,0.00,,---,0.00,0.00,VWS V14.00,2013-03-05 06:40:00,
2013-03-05 00:45:00,74.6,32.1,29.52,SSW,198,7.0,7.0,21,0.00,,---,0.00,0.00,VWS V14.00,2013-03-05 06:45:00,
2013-03-05 00:50:00,74.4,32.0,29.52,SSW,196,2.0,10.0,21,0.00,,---,0.00,0.00,VWS V14.00,2013-03-05 06:50:00,
2013-03-05 00:55:00,74.2,31.8,29.52,SSW,198,2.0,7.0,21,0.00,,---,0.00,0.00,VWS V14.00,2013-03-05 06:55:00,
2013-03-05 01:00:00,73.9,31.5,29.51,SSW,197,2.0,8.0,21,0.00,,---,0.00,0.00,VWS V14.00,2013-03-05 07:00:00,
2013-03-05 01:05:00,73.5,32.4,29.51,SSW,194,1.0,9.0,22,0.00,,---,0.00,0.00,VWS V14.00,2013-03-05 07:05:00,
2013-03-05 01:10:00,73.1,33.1,29.51,SSW,195,0.0,10.0,23,0.00,,---,0.00,0.00,VWS V14.00,2013-03-05 07:10:00,
2013-03-05 01:15:00,72.8,32.9,29.51,SSW,196,5.0,5.0,23,0.00,,---,0.00,0.00,VWS V14.00,2013-03-05 07:15:00,
2013-03-05 01:20:00,72.5,33.7,29.52,SSW,196,7.0,7.0,24,0.00,,---,0.00,0.00,VWS V14.00,2013-03-05 07:20:00,
2013-03-05 01:25:00,72.2,33.4,29.52,SSW,202,5.0,10.0,24,0.00,,---,0.00,0.00,VWS V14.00,2013-03-05 07:25:00,
2013-03-05 01:30:00,71.9,34.2,29.53,SSW,205,4.0,10.0,25,0.00,,---,0.00,0.00,VWS V14.00,2013-03-05 07:30:00,
2013-03-05 01:35:00,71.6,34.0,29.53,SSW,208,2.0,9.0,25,0.00,,---,0.00,0.00,VWS V14.00,2013-03-05 07:35:00,
2013-03-05 01:40:00,71.3,33.7,29.54,SSW,208,2.0,9.0,25,0.00,,---,0.00,0.00,VWS V14.00,2013-03-05 07:40:00,
2013-03-05 01:45:00,71.2,33.6,29.54,SSW,208,4.0,7.0,25,0.00,,---,0.00,0.00,VWS V14.00,2013-03-05 07:45:00,
2013-03-05 01:50:00,71.2,34.6,29.55,SSW,213,4.0,12.0,26,0.00,,---,0.00,0.00,VWS V14.00,2013-03-05 07:50:00,
2013-03-05 01:55:00,71.2,33.6,29.60,WNW,290,19.0,21.0,25,0.00,,---,0.00,0.00,VWS V14.00,2013-03-05 07:55:00,
2013-03-05 02:00:00,69.9,31.5,29.62,NNW,338,7.0,21.0,24,0.00,,---,0.00,0.00,VWS V14.00,2013-03-05 08:00:00,
2013-03-05 02:05:00,69.0,30.7,29.63,NW,305,6.0,12.0,24,0.00,,---,0.00,0.00,VWS V14.00,2013-03-05 08:05:00,
2013-03-05 02:10:00,68.3,30.1,29.65,NW,304,8.0,14.0,24,0.00,,---,0.00,0.00,VWS V14.00,2013-03-05 08:10:00,
2013-03-05 02:15:00,67.7,29.6,29.65,WNW,296,4.0,13.0,24,0.00,,---,0.00,0.00,VWS V14.00,2013-03-05 08:15:00,
2013-03-05 02:20:00,67.2,28.2,29.68,WNW,292,7.0,13.0,23,0.00,,---,0.00,0.00,VWS V14.00,2013-03-05 08:20:00,
2013-03-05 02:25:00,66.8,33.5,29.70,WNW,292,12.0,22.0,29,0.00,,---,0.00,0.00,VWS V14.00,2013-03-05 08:25:00,
2013-03-05 02:30:00,65.5,38.6,29.70,West,277,6.0,22.0,37,0.00,,---,0.00,0.00,VWS V14.00,2013-03-05 08:30:00,
2013-03-05 02:35:00,63.8,40.3,29.72,West,276,13.0,20.0,42,0.00,,---,0.00,0.00,VWS V14.00,2013-03-05 08:35:00,
2013-03-05 02:40:00,61.3,40.4,29.74,West,281,12.0,20.0,46,0.00,,---,0.00,0.00,VWS V14.00,2013-03-05 08:40:00,
2013-03-05 02:45:00,59.0,40.4,29.75,WNW,290,7.0,19.0,50,0.00,,---,0.00,0.00,VWS V14.00,2013-03-05 08:45:00,
2013-03-05 02:50:00,57.2,39.8,29.76,WNW,295,6.0,23.0,52,0.00,,---,0.00,0.00,VWS V14.00,2013-03-05 08:50:00,
2013-03-05 02:55:00,56.0,40.1,29.77,WNW,288,11.0,14.0,55,0.00,,---,0.00,0.00,VWS V14.00,2013-03-05 08:55:00,
2013-03-05 03:00:00,55.1,39.7,29.78,West,279,11.0,18.0,56,0.00,,---,0.00,0.00,VWS V14.00,2013-03-05 09:00:00,
2013-03-05 03:05:00,54.3,39.0,29.80,WNW,300,12.0,16.0,56,0.00,,---,0.00,0.00,VWS V14.00,2013-03-05 09:05:00,
2013-03-05 03:10:00,53.2,37.9,29.81,WNW,292,13.0,16.0,56,0.00,,---,0.00,0.00,VWS V14.00,2013-03-05 09:10:00,
2013-03-05 03:15:00,52.1,37.3,29.82,NW,311,2.0,15.0,57,0.00,,---,0.00,0.00,VWS V14.00,2013-03-05 09:15:00,
2013-03-05 03:20:00,51.2,37.4,29.82,West,272,2.0,15.0,59,0.00,,---,0.00,0.00,VWS V14.00,2013-03-05 09:20:00,
2013-03-05 03:25:00,50.4,37.0,29.83,WNW,287,4.0,13.0,60,0.00,,---,0.00,0.00,VWS V14.00,2013-03-05 09:25:00,
2013-03-05 03:30:00,50.0,37.1,29.83,WNW,285,6.0,13.0,61,0.00,,---,0.00,0.00,VWS V14.00,2013-03-05 09:30:00,
2013-03-05 03:35:00,49.6,36.7,29.85,NW,304,4.0,12.0,61,0.00,,---,0.00,0.00,VWS V14.00,2013-03-05 09:35:00,
2013-03-05 03:40:00,49.3,36.4,29.85,NNW,330,4.0,13.0,61,0.00,,---,0.00,0.00,VWS V14.00,2013-03-05 09:40:00,
2013-03-05 03:45:00,49.0,36.6,29.86,WNW,293,1.0,16.0,62,0.00,,---,0.00,0.00,VWS V14.00,2013-03-05 09:45:00,
2013-03-05 03:50:00,48.7,36.3,29.87,West,269,5.0,16.0,62,0.00,,---,0.00,0.00,VWS V14.00,2013-03-05 09:50:00,
2013-03-05 03:55:00,48.5,35.7,29.88,WNW,290,8.0,11.0,61,0.00,,---,0.00,0.00,VWS V14.00,2013-03-05 09:55:00,
2013-03-05 04:00:00,48.3,35.9,29.88,West,269,3.0,12.0,62,0.00,,---,0.00,0.00,VWS V14.00,2013-03-05 10:00:00,
2013-03-05 04:05:00,48.1,35.7,29.89,WNW,302,4.0,8.0,62,0.00,,---,0.00,0.00,VWS V14.00,2013-03-05 10:05:00,
2013-03-05 04:10:00,47.9,35.9,29.89,West,272,9.0,11.0,63,0.00,,---,0.00,0.00,VWS V14.00,2013-03-05 10:10:00,
2013-03-05 04:15:00,47.8,35.8,29.90,NW,304,5.0,13.0,63,0.00,,---,0.00,0.00,VWS V14.00,2013-03-05 10:15:00,
2013-03-05 04:20:00,47.6,35.6,29.91,WNW,285,6.0,13.0,63,0.00,,---,0.00,0.00,VWS V14.00,2013-03-05 10:20:00,
2013-03-05 04:25:00,47.5,35.5,29.92,WNW,283,5.0,8.0,63,0.00,,---,0.00,0.00,VWS V14.00,2013-03-05 10:25:00,
2013-03-05 04:30:00,47.4,35.5,29.92,West,279,7.0,8.0,63,0.00,,---,0.00,0.00,VWS V14.00,2013-03-05 10:30:00,
2013-03-05 04:35:00,47.2,35.3,29.92,West,273,6.0,12.0,63,0.00,,---,0.00,0.00,VWS V14.00,2013-03-05 10:35:00,
2013-03-05 04:40:00,47.1,35.2,29.93,West,272,7.0,12.0,63,0.00,,---,0.00,0.00,VWS V14.00,2013-03-05 10:40:00,
2013-03-05 04:45:00,47.0,35.1,29.93,West,265,11.0,13.0,63,0.00,,---,0.00,0.00,VWS V14.00,2013-03-05 10:45:00,
2013-03-05 04:50:00,46.9,35.0,29.94,West,267,4.0,13.0,63,0.00,,---,0.00,0.00,VWS V14.00,2013-03-05 10:50:00,
2013-03-05 04:55:00,46.7,34.8,29.95,West,275,4.0,11.0,63,0.00,,---,0.00,0.00,VWS V14.00,2013-03-05 10:55:00,
2013-03-05 05:00:00,46.6,35.1,29.96,WNW,293,2.0,11.0,64,0.00,,---,0.00,0.00,VWS V14.00,2013-03-05 11:00:00,
2013-03-05 05:05:00,46.5,35.0,29.96,West,268,0.0,12.0,64,0.00,,---,0.00,0.00,VWS V14.00,2013-03-05 11:05:00,
2013-03-05 05:10:00,46.3,34.8,29.97,West,281,1.0,12.0,64,0.00,,---,0.00,0.00,VWS V14.00,2013-03-05 11:10:00,
2013-03-05 05:15:00,46.2,34.7,29.97,West,278,0.0,8.0,64,0.00,,---,0.00,0.00,VWS V14.00,2013-03-05 11:15:00,
2013-03-05 05:20:00,46.1,34.6,29.98,West,278,1.0,8.0,64,0.00,,---,0.00,0.00,VWS V14.00,2013-03-05 11:20:00,
2013-03-05 05:25:00,46.0,34.5,29.98,NNW,336,4.0,10.0,64,0.00,,---,0.00,0.00,VWS V14.00,2013-03-05 11:25:00,
2013-03-05 05:30:00,45.9,34.4,29.99,WSW,244,4.0,12.0,64,0.00,,---,0.00,0.00,VWS V14.00,2013-03-05 11:30:00,
2013-03-05 05:35:00,45.9,34.4,29.98,West,266,5.0,8.0,64,0.00,,---,0.00,0.00,VWS V14.00,2013-03-05 11:35:00,
2013-03-05 05:40:00,45.8,34.3,29.99,West,261,4.0,10.0,64,0.00,,---,0.00,0.00,VWS V14.00,2013-03-05 11:40:00,
2013-03-05 05:45:00,45.6,34.1,30.00,West,263,3.0,5.0,64,0.00,,---,0.00,0.00,VWS V14.00,2013-03-05 11:45:00,
2013-03-05 05:50:00,45.5,34.4,29.99,West,260,3.0,6.0,65,0.00,,---,0.00,0.00,VWS V14.00,2013-03-05 11:50:00,
2013-03-05 05:55:00,45.4,34.3,30.00,West,279,5.0,7.0,65,0.00,,---,0.00,0.00,VWS V14.00,2013-03-05 11:55:00,
2013-03-05 06:00:00,45.3,34.2,30.01,West,275,0.0,8.0,65,0.00,,---,0.00,0.00,VWS V14.00,2013-03-05 12:00:00,
2013-03-05 06:05:00,45.2,34.2,30.01,NNW,342,1.0,7.0,65,0.00,,---,0.00,0.00,VWS V14.00,2013-03-05 12:05:00,
2013-03-05 06:10:00,45.2,34.2,30.01,West,268,5.0,7.0,65,0.00,,---,0.00,0.00,VWS V14.00,2013-03-05 12:10:00,
2013-03-05 06:15:00,45.1,33.7,30.01,West,267,1.0,7.0,64,0.00,,---,0.00,0.00,VWS V14.00,2013-03-05 12:15:00,
2013-03-05 06:20:00,45.0,33.6,30.02,West,266,2.0,10.0,64,0.00,,---,0.00,0.00,VWS V14.00,2013-03-05 12:20:00,
2013-03-05 06:25:00,44.9,33.5,30.02,West,260,3.0,13.0,64,0.00,,---,0.00,0.00,VWS V14.00,2013-03-05 12:25:00,
2013-03-05 06:30:00,44.9,33.5,30.02,West,260,4.0,13.0,64,0.00,,---,0.00,0.00,VWS V14.00,2013-03-05 12:30:00,
2013-03-05 06:35:00,44.7,33.3,30.03,West,260,4.0,8.0,64,0.00,,---,0.00,0.00,VWS V14.00,2013-03-05 12:35:00,
2013-03-05 06:40:00,44.6,33.2,30.03,West,260,0.0,8.0,64,0.00,,---,0.00,0.00,VWS V14.00,2013-03-05 12:40:00,
2013-03-05 06:45:00,44.5,33.1,30.04,West,260,0.0,5.0,64,0.00,,---,0.00,0.00,VWS V14.00,2013-03-05 12:45:00,
2013-03-05 06:50:00,44.4,33.0,30.04,West,260,5.0,6.0,64,0.00,,---,0.00,0.00,VWS V14.00,2013-03-05 12:50:00,
2013-03-05 06:55:00,44.4,33.0,30.04,WNW,290,8.0,8.0,64,0.00,,---,0.00,0.00,VWS V14.00,2013-03-05 12:55:00,
2013-03-05 07:00:00,44.3,32.9,30.05,WNW,288,6.0,8.0,64,0.00,,---,0.00,5.00,VWS V14.00,2013-03-05 13:00:00,
2013-03-05 07:05:00,44.2,33.2,30.06,West,281,6.0,7.0,65,0.00,,---,0.00,9.00,VWS V14.00,2013-03-05 13:05:00,
2013-03-05 07:10:00,44.1,33.1,30.06,WNW,284,6.0,7.0,65,0.00,,---,0.00,14.00,VWS V14.00,2013-03-05 13:10:00,
2013-03-05 07:15:00,43.9,32.5,30.06,West,279,2.0,9.0,64,0.00,,---,0.00,21.00,VWS V14.00,2013-03-05 13:15:00,
2013-03-05 07:20:00,43.8,32.4,30.06,West,275,4.0,9.0,64,0.00,,---,0.00,26.00,VWS V14.00,2013-03-05 13:20:00,
2013-03-05 07:25:00,43.8,32.4,30.07,West,275,1.0,5.0,64,0.00,,---,0.00,32.00,VWS V14.00,2013-03-05 13:25:00,
2013-03-05 07:30:00,43.8,32.4,30.06,West,276,0.0,7.0,64,0.00,,---,0.00,35.00,VWS V14.00,2013-03-05 13:30:00,
2013-03-05 07:35:00,43.8,32.0,30.07,West,265,3.0,10.0,63,0.00,,---,0.00,42.00,VWS V14.00,2013-03-05 13:35:00,
2013-03-05 07:40:00,43.9,32.1,30.07,WNW,298,5.0,12.0,63,0.00,,---,0.00,65.00,VWS V14.00,2013-03-05 13:40:00,
2013-03-05 07:45:00,44.0,31.8,30.08,WSW,257,0.0,11.0,62,0.00,,---,0.00,74.00,VWS V14.00,2013-03-05 13:45:00,
2013-03-05 07:50:00,44.1,31.5,30.08,WNW,287,8.0,11.0,61,0.00,,---,0.00,84.00,VWS V14.00,2013-03-05 13:50:00,
2013-03-05 07:55:00,44.2,31.2,30.08,West,274,5.0,11.0,60,0.00,,---,0.00,76.00,VWS V14.00,2013-03-05 13:55:00,
2013-03-05 08:00:00,44.3,30.9,30.09,WNW,284,1.0,11.0,59,0.00,,---,0.00,69.00,VWS V14.00,2013-03-05 14:00:00,
2013-03-05 08:05:00,44.3,30.5,30.09,West,276,7.0,9.0,58,0.00,,---,0.00,86.00,VWS V14.00,2013-03-05 14:05:00,
2013-03-05 08:10:00,44.5,30.2,30.10,WNW,294,2.0,12.0,57,0.00,,---,0.00,146.00,VWS V14.00,2013-03-05 14:10:00,
2013-03-05 08:15:00,44.7,30.0,30.11,West,270,12.0,12.0,56,0.00,,---,0.00,172.00,VWS V14.00,2013-03-05 14:15:00,
2013-03-05 08:20:00,44.9,29.3,30.11,WSW,253,0.0,12.0,54,0.00,,---,0.00,121.00,VWS V14.00,2013-03-05 14:20:00,
2013-03-05 08:25:00,45.1,29.0,30.12,WNW,284,6.0,9.0,53,0.00,,---,0.00,139.00,VWS V14.00,2013-03-05 14:25:00,
2013-03-05 08:30:00,45.1,29.0,30.12,NW,321,4.0,10.0,53,0.00,,---,0.00,134.00,VWS V14.00,2013-03-05 14:30:00,
2013-03-05 08:35:00,45.2,28.6,30.13,ENE,78,7.0,12.0,52,0.00,,---,0.00,144.00,VWS V14.00,2013-03-05 14:35:00,
2013-03-05 08:40:00,45.2,28.2,30.13,West,266,4.0,18.0,51,0.00,,---,0.00,172.00,VWS V14.00,2013-03-05 14:40:00,
2013-03-05 08:45:00,45.3,27.8,30.14,West,278,6.0,11.0,50,0.00,,---,0.00,158.00,VWS V14.00,2013-03-05 14:45:00,
2013-03-05 08:50:00,45.4,26.9,30.14,WNW,301,9.0,13.0,48,0.00,,---,0.00,209.00,VWS V14.00,2013-03-05 14:50:00,
2013-03-05 08:55:00,45.6,26.0,30.14,West,281,6.0,12.0,46,0.00,,---,0.00,323.00,VWS V14.00,2013-03-05 14:55:00,
2013-03-05 09:00:00,45.9,25.2,30.15,West,280,9.0,14.0,44,0.00,,---,0.00,288.00,VWS V14.00,2013-03-05 15:00:00,
2013-03-05 09:05:00,46.2,25.5,30.15,West,261,6.0,11.0,44,0.00,,---,0.00,301.00,VWS V14.00,2013-03-05 15:05:00,
2013-03-05 09:10:00,46.5,25.8,30.15,West,270,11.0,11.0,44,0.00,,---,0.00,364.00,VWS V14.00,2013-03-05 15:10:00,
2013-03-05 09:15:00,46.9,25.6,30.15,West,281,9.0,15.0,43,0.00,,---,0.00,339.00,VWS V14.00,2013-03-05 15:15:00,
2013-03-05 09:20:00,47.2,25.3,30.15,West,270,6.0,15.0,42,0.00,,---,0.00,308.00,VWS V14.00,2013-03-05 15:20:00,
2013-03-05 09:25:00,47.6,24.5,30.15,WNW,286,5.0,14.0,40,0.00,,---,0.00,399.00,VWS V14.00,2013-03-05 15:25:00,
2013-03-05 09:30:00,48.1,23.1,30.16,West,265,14.0,14.0,37,0.00,,---,0.00,285.00,VWS V14.00,2013-03-05 15:30:00,
2013-03-05 09:35:00,48.2,23.2,30.16,West,274,11.0,16.0,37,0.00,,---,0.00,418.00,VWS V14.00,2013-03-05 15:35:00,
2013-03-05 09:40:00,48.2,22.5,30.16,West,267,5.0,16.0,36,0.00,,---,0.00,353.00,VWS V14.00,2013-03-05 15:40:00,
2013-03-05 09:45:00,48.3,22.6,30.17,West,261,6.0,15.0,36,0.00,,---,0.00,508.00,VWS V14.00,2013-03-05 15:45:00,
2013-03-05 09:50:00,48.7,23.0,30.17,WSW,252,8.0,15.0,36,0.00,,---,0.00,276.00,VWS V14.00,2013-03-05 15:50:00,
2013-03-05 09:55:00,48.7,22.3,30.17,West,277,5.0,13.0,35,0.00,,---,0.00,302.00,VWS V14.00,2013-03-05 15:55:00,
2013-03-05 10:00:00,48.7,22.3,30.17,WNW,293,6.0,13.0,35,0.00,,---,0.00,334.00,VWS V14.00,2013-03-05 16:00:00,
2013-03-05 10:05:00,48.8,21.7,30.17,West,269,11.0,13.0,34,0.00,,---,0.00,318.00,VWS V14.00,2013-03-05 16:05:00,
2013-03-05 10:10:00,48.8,21.0,30.18,West,267,6.0,13.0,33,0.00,,---,0.00,301.00,VWS V14.00,2013-03-05 16:10:00,
2013-03-05 10:15:00,48.9,21.1,30.18,West,274,9.0,18.0,33,0.00,,---,0.00,445.00,VWS V14.00,2013-03-05 16:15:00,
2013-03-05 10:20:00,49.1,21.3,30.19,NW,316,1.0,18.0,33,0.00,,---,0.00,469.00,VWS V14.00,2013-03-05 16:20:00,
2013-03-05 10:25:00,49.5,21.6,30.19,West,272,5.0,12.0,33,0.00,,---,0.00,492.00,VWS V14.00,2013-03-05 16:25:00,
2013-03-05 10:30:00,50.1,22.1,30.19,West,271,7.0,12.0,33,0.00,,---,0.00,397.00,VWS V14.00,2013-03-05 16:30:00,
2013-03-05 10:35:00,50.6,21.9,30.19,WSW,255,3.0,14.0,32,0.00,,---,0.00,403.00,VWS V14.00,2013-03-05 16:35:00,
2013-03-05 10:40:00,51.0,22.2,30.19,West,267,7.0,15.0,32,0.00,,---,0.00,555.00,VWS V14.00,2013-03-05 16:40:00,
2013-03-05 10:45:00,51.9,22.2,30.19,West,273,7.0,11.0,31,0.00,,---,0.00,677.00,VWS V14.00,2013-03-05 16:45:00,
2013-03-05 10:50:00,52.6,22.9,30.19,West,267,6.0,18.0,31,0.00,,---,0.00,722.00,VWS V14.00,2013-03-05 16:50:00,
2013-03-05 10:55:00,52.9,22.3,30.19,WNW,292,9.0,13.0,30,0.00,,---,0.00,751.00,VWS V14.00,2013-03-05 16:55:00,
2013-03-05 11:00:00,53.1,22.5,30.19,NW,312,7.0,13.0,30,0.00,,---,0.00,513.00,VWS V14.00,2013-03-05 17:00:00,
2013-03-05 11:05:00,53.3,21.9,30.20,NW,306,6.0,13.0,29,0.00,,---,0.00,766.00,VWS V14.00,2013-03-05 17:05:00,
2013-03-05 11:10:00,53.8,22.3,30.19,West,281,9.0,21.0,29,0.00,,---,0.00,798.00,VWS V14.00,2013-03-05 17:10:00,
2013-03-05 11:15:00,54.2,21.8,30.19,West,269,12.0,19.0,28,0.00,,---,0.00,721.00,VWS V14.00,2013-03-05 17:15:00,
2013-03-05 11:20:00,54.3,21.0,30.20,WSW,251,6.0,19.0,27,0.00,,---,0.00,656.00,VWS V14.00,2013-03-05 17:20:00,
2013-03-05 11:25:00,54.6,21.3,30.19,WNW,282,8.0,11.0,27,0.00,,---,0.00,758.00,VWS V14.00,2013-03-05 17:25:00,
2013-03-05 11:30:00,55.2,21.8,30.20,NW,306,6.0,13.0,27,0.00,,---,0.00,703.00,VWS V14.00,2013-03-05 17:30:00,
2013-03-05 11:35:00,55.4,22.9,30.20,West,280,4.0,14.0,28,0.00,,---,0.00,722.00,VWS V14.00,2013-03-05 17:35:00,
2013-03-05 11:40:00,55.4,22.0,30.20,West,279,12.0,18.0,27,0.00,,---,0.00,729.00,VWS V14.00,2013-03-05 17:40:00,
2013-03-05 11:45:00,55.8,21.5,30.20,WNW,282,5.0,12.0,26,0.00,,---,0.00,701.00,VWS V14.00,2013-03-05 17:45:00,
2013-03-05 11:50:00,56.2,20.9,30.20,WNW,295,7.0,12.0,25,0.00,,---,0.00,624.00,VWS V14.00,2013-03-05 17:50:00,
2013-03-05 11:55:00,56.3,21.0,30.20,NW,319,9.0,15.0,25,0.00,,---,0.00,810.00,VWS V14.00,2013-03-05 17:55:00,
2013-03-05 12:00:00,56.6,20.2,30.20,NW,318,9.0,21.0,24,0.00,,---,0.00,816.00,VWS V14.00,2013-03-05 18:00:00,
2013-03-05 12:05:00,57.0,20.6,30.20,WNW,287,11.0,20.0,24,0.00,,---,0.00,788.00,VWS V14.00,2013-03-05 18:05:00,
2013-03-05 12:10:00,57.2,19.8,30.20,WNW,286,5.0,20.0,23,0.00,,---,0.00,745.00,VWS V14.00,2013-03-05 18:10:00,
2013-03-05 12:15:00,57.5,20.0,30.19,West,270,8.0,14.0,23,0.00,,---,0.00,812.00,VWS V14.00,2013-03-05 18:15:00,
2013-03-05 12:20:00,58.0,19.4,30.19,WNW,285,6.0,19.0,22,0.00,,---,0.00,807.00,VWS V14.00,2013-03-05 18:20:00,
2013-03-05 12:25:00,58.1,19.5,30.19,West,275,12.0,14.0,22,0.00,,---,0.00,879.00,VWS V14.00,2013-03-05 18:25:00,
2013-03-05 12:30:00,58.4,18.6,30.19,WNW,289,8.0,19.0,21,0.00,,---,0.00,837.00,VWS V14.00,2013-03-05 18:30:00,
2013-03-05 12:35:00,58.6,18.8,30.19,WSW,257,10.0,12.0,21,0.00,,---,0.00,893.00,VWS V14.00,2013-03-05 18:35:00,
2013-03-05 12:40:00,58.9,19.1,30.19,NW,310,2.0,16.0,21,0.00,,---,0.00,635.00,VWS V14.00,2013-03-05 18:40:00,
2013-03-05 12:45:00,59.0,18.0,30.19,SW,229,6.0,15.0,20,0.00,,---,0.00,703.00,VWS V14.00,2013-03-05 18:45:00,
2013-03-05 12:50:00,59.1,20.3,30.19,WNW,286,6.0,15.0,22,0.00,,---,0.00,786.00,VWS V14.00,2013-03-05 18:50:00,
2013-03-05 12:55:00,59.7,18.6,30.19,NW,315,15.0,19.0,20,0.00,,---,0.00,853.00,VWS V14.00,2013-03-05 18:55:00,
2013-03-05 13:00:00,59.5,18.4,30.19,West,261,11.0,19.0,20,0.00,,---,0.00,717.00,VWS V14.00,2013-03-05 19:00:00,
2013-03-05 13:05:00,59.3,17.1,30.18,WNW,285,6.0,18.0,19,0.00,,---,0.00,867.00,VWS V14.00,2013-03-05 19:05:00,
2013-03-05 13:10:00,59.6,17.3,30.18,West,271,9.0,18.0,19,0.00,,---,0.00,918.00,VWS V14.00,2013-03-05 19:10:00,
2013-03-05 13:15:00,59.6,17.3,30.18,West,271,12.0,19.0,19,0.00,,---,0.00,874.00,VWS V14.00,2013-03-05 19:15:00,
2013-03-05 13:20:00,59.9,18.8,30.18,West,271,8.0,19.0,20,0.00,,---,0.00,812.00,VWS V14.00,2013-03-05 19:20:00,
2013-03-05 13:25:00,60.3,17.9,30.18,West,272,8.0,12.0,19,0.00,,---,0.00,831.00,VWS V14.00,2013-03-05 19:25:00,
2013-03-05 13:30:00,60.7,19.4,30.18,West,281,5.0,18.0,20,0.00,,---,0.00,823.00,VWS V14.00,2013-03-05 19:30:00,
2013-03-05 13:35:00,61.2,18.6,30.18,WNW,302,8.0,13.0,19,0.00,,---,0.00,780.00,VWS V14.00,2013-03-05 19:35:00,
2013-03-05 13:40:00,61.0,18.5,30.18,WNW,287,7.0,16.0,19,0.00,,---,0.00,700.00,VWS V14.00,2013-03-05 19:40:00,
2013-03-05 13:45:00,60.8,18.3,30.17,WNW,282,8.0,15.0,19,0.00,,---,0.00,788.00,VWS V14.00,2013-03-05 19:45:00,
2013-03-05 13:50:00,60.9,17.1,30.17,West,273,8.0,20.0,18,0.00,,---,0.00,891.00,VWS V14.00,2013-03-05 19:50:00,
2013-03-05 13:55:00,61.4,17.5,30.17,WNW,296,7.0,15.0,18,0.00,,---,0.00,872.00,VWS V14.00,2013-03-05 19:55:00,
2013-03-05 14:00:00,61.6,16.4,30.17,West,259,5.0,18.0,17,0.00,,---,0.00,837.00,VWS V14.00,2013-03-05 20:00:00,
2013-03-05 14:05:00,61.7,16.5,30.17,WNW,286,5.0,12.0,17,0.00,,---,0.00,844.00,VWS V14.00,2013-03-05 20:05:00,
2013-03-05 14:10:00,61.8,16.5,30.17,West,268,5.0,14.0,17,0.00,,---,0.00,840.00,VWS V14.00,2013-03-05 20:10:00,
2013-03-05 14:15:00,61.9,16.6,30.17,South,181,5.0,7.0,17,0.00,,---,0.00,844.00,VWS V14.00,2013-03-05 20:15:00,
2013-03-05 14:20:00,62.4,14.2,30.17,WNW,284,11.0,15.0,15,0.00,,---,0.00,828.00,VWS V14.00,2013-03-05 20:20:00,
2013-03-05 14:25:00,62.2,14.0,30.17,West,277,13.0,19.0,15,0.00,,---,0.00,814.00,VWS V14.00,2013-03-05 20:25:00,
2013-03-05 14:30:00,62.2,14.0,30.17,West,273,6.0,19.0,15,0.00,,---,0.00,807.00,VWS V14.00,2013-03-05 20:30:00,
2013-03-05 14:35:00,62.7,12.8,30.17,WNW,284,8.0,15.0,14,0.00,,---,0.00,761.00,VWS V14.00,2013-03-05 20:35:00,
2013-03-05 14:40:00,62.8,14.5,30.17,WNW,300,7.0,19.0,15,0.00,,---,0.00,759.00,VWS V14.00,2013-03-05 20:40:00,
2013-03-05 14:45:00,62.7,12.8,30.17,North,360,7.0,12.0,14,0.00,,---,0.00,754.00,VWS V14.00,2013-03-05 20:45:00,
2013-03-05 14:50:00,62.8,12.9,30.17,West,273,8.0,12.0,14,0.00,,---,0.00,773.00,VWS V14.00,2013-03-05 20:50:00,
2013-03-05 14:55:00,63.0,13.1,30.17,WNW,303,4.0,11.0,14,0.00,,---,0.00,747.00,VWS V14.00,2013-03-05 20:55:00,
2013-03-05 15:00:00,62.9,13.0,30.17,NNW,335,4.0,14.0,14,0.00,,---,0.00,754.00,VWS V14.00,2013-03-05 21:00:00,
2013-03-05 15:05:00,62.9,13.0,30.17,NW,307,5.0,13.0,14,0.00,,---,0.00,541.00,VWS V14.00,2013-03-05 21:05:00,
2013-03-05 15:10:00,62.6,14.3,30.17,West,278,14.0,15.0,15,0.00,,---,0.00,621.00,VWS V14.00,2013-03-05 21:10:00,
2013-03-05 15:15:00,62.3,12.5,30.17,West,273,4.0,14.0,14,0.00,,---,0.00,339.00,VWS V14.00,2013-03-05 21:15:00,
2013-03-05 15:20:00,62.0,12.3,30.17,West,263,8.0,16.0,14,0.00,,---,0.00,612.00,VWS V14.00,2013-03-05 21:20:00,
2013-03-05 15:25:00,61.7,12.1,30.17,West,281,11.0,18.0,14,0.00,,---,0.00,520.00,VWS V14.00,2013-03-05 21:25:00,
2013-03-05 15:30:00,61.6,13.5,30.17,West,273,9.0,18.0,15,0.00,,---,0.00,608.00,VWS V14.00,2013-03-05 21:30:00,
2013-03-05 15:35:00,62.0,13.9,30.17,WNW,291,8.0,10.0,15,0.00,,---,0.00,538.00,VWS V14.00,2013-03-05 21:35:00,
2013-03-05 15:40:00,62.0,12.3,30.18,WNW,292,8.0,13.0,14,0.00,,---,0.00,559.00,VWS V14.00,2013-03-05 21:40:00,
2013-03-05 15:45:00,62.1,13.9,30.17,WNW,288,7.0,12.0,15,0.00,,---,0.00,584.00,VWS V14.00,2013-03-05 21:45:00,
2013-03-05 15:50:00,62.6,14.3,30.17,WNW,287,18.0,18.0,15,0.00,,---,0.00,570.00,VWS V14.00,2013-03-05 21:50:00,
2013-03-05 15:55:00,62.5,14.2,30.17,West,269,11.0,13.0,15,0.00,,---,0.00,563.00,VWS V14.00,2013-03-05 21:55:00,
2013-03-05 16:00:00,62.8,14.5,30.17,WNW,289,4.0,15.0,15,0.00,,---,0.00,566.00,VWS V14.00,2013-03-05 22:00:00,
2013-03-05 16:05:00,63.2,14.8,30.17,West,267,6.0,13.0,15,0.00,,---,0.00,547.00,VWS V14.00,2013-03-05 22:05:00,
2013-03-05 16:10:00,63.3,13.3,30.17,West,277,11.0,15.0,14,0.00,,---,0.00,529.00,VWS V14.00,2013-03-05 22:10:00,
2013-03-05 16:15:00,63.1,11.5,30.17,NW,313,5.0,14.0,13,0.00,,---,0.00,520.00,VWS V14.00,2013-03-05 22:15:00,
2013-03-05 16:20:00,62.7,12.8,30.17,WNW,300,2.0,14.0,14,0.00,,---,0.00,483.00,VWS V14.00,2013-03-05 22:20:00,
2013-03-05 16:25:00,63.3,13.3,30.18,WNW,292,5.0,7.0,14,0.00,,---,0.00,316.00,VWS V14.00,2013-03-05 22:25:00,
2013-03-05 16:30:00,63.0,13.1,30.18,West,276,5.0,12.0,14,0.00,,---,0.00,475.00,VWS V14.00,2013-03-05 22:30:00,
2013-03-05 16:35:00,62.8,14.5,30.18,North,350,4.0,7.0,15,0.00,,---,0.00,457.00,VWS V14.00,2013-03-05 22:35:00,
2013-03-05 16:40:00,63.2,13.2,30.18,WNW,291,8.0,12.0,14,0.00,,---,0.00,367.00,VWS V14.00,2013-03-05 22:40:00,
2013-03-05 16:45:00,62.9,13.0,30.18,West,268,8.0,18.0,14,0.00,,---,0.00,279.00,VWS V14.00,2013-03-05 22:45:00,
2013-03-05 16:50:00,62.3,12.5,30.18,West,280,9.0,18.0,14,0.00,,---,0.00,352.00,VWS V14.00,2013-03-05 22:50:00,
2013-03-05 16:55:00,61.8,12.1,30.18,NW,315,5.0,12.0,14,0.00,,---,0.00,367.00,VWS V14.00,2013-03-05 22:55:00,
2013-03-05 17:00:00,62.2,12.4,30.19,WNW,300,0.0,12.0,14,0.00,,---,0.00,313.00,VWS V14.00,2013-03-05 23:00:00,
2013-03-05 17:05:00,62.1,12.4,30.18,WNW,302,5.0,12.0,14,0.00,,---,0.00,325.00,VWS V14.00,2013-03-05 23:05:00,
2013-03-05 17:10:00,62.1,12.4,30.19,WNW,284,5.0,12.0,14,0.00,,---,0.00,230.00,VWS V14.00,2013-03-05 23:10:00,
2013-03-05 17:15:00,61.7,12.1,30.19,East,80,1.0,8.0,14,0.00,,---,0.00,278.00,VWS V14.00,2013-03-05 23:15:00,
2013-03-05 17:20:00,61.5,11.9,30.19,NE,54,4.0,10.0,14,0.00,,---,0.00,246.00,VWS V14.00,2013-03-05 23:20:00,
2013-03-05 17:25:00,61.6,12.0,30.19,West,279,7.0,8.0,14,0.00,,---,0.00,243.00,VWS V14.00,2013-03-05 23:25:00,
2013-03-05 17:30:00,61.4,10.1,30.19,West,273,5.0,12.0,13,0.00,,---,0.00,229.00,VWS V14.00,2013-03-05 23:30:00,
2013-03-05 17:35:00,61.3,10.1,30.20,West,273,6.0,7.0,13,0.00,,---,0.00,209.00,VWS V14.00,2013-03-05 23:35:00,
2013-03-05 17:40:00,61.1,9.9,30.20,WNW,290,0.0,11.0,13,0.00,,---,0.00,179.00,VWS V14.00,2013-03-05 23:40:00,
2013-03-05 17:45:00,61.0,9.8,30.20,WNW,294,0.0,6.0,13,0.00,,---,0.00,151.00,VWS V14.00,2013-03-05 23:45:00,
2013-03-05 17:50:00,61.0,9.8,30.20,WNW,290,6.0,8.0,13,0.00,,---,0.00,127.00,VWS V14.00,2013-03-05 23:50:00,
2013-03-05 17:55:00,61.0,9.8,30.20,WNW,290,4.0,7.0,13,0.00,,---,0.00,105.00,VWS V14.00,2013-03-05 23:55:00,
2013-03-05 18:00:00,60.7,9.6,30.20,WNW,288,2.0,8.0,13,0.00,,---,0.00,88.00,VWS V14.00,2013-03-06 00:00:00,
2013-03-05 18:05:00,60.6,9.5,30.21,WNW,288,2.0,5.0,13,0.00,,---,0.00,69.00,VWS V14.00,2013-03-06 00:05:00,
2013-03-05 18:10:00,60.4,9.4,30.21,WNW,288,4.0,11.0,13,0.00,,---,0.00,53.00,VWS V14.00,2013-03-06 00:10:00,
2013-03-05 18:14:00,60.0,9.0,30.21,WNW,288,1.0,6.0,13,0.00,,---,0.00,40.00,VWS V14.00,2013-03-06 00:14:00,
2013-03-05 18:19:00,59.7,10.4,30.21,WNW,288,2.0,6.0,14,0.00,,---,0.00,28.00,VWS V14.00,2013-03-06 00:19:00,
2013-03-05 18:24:00,59.3,10.1,30.22,WNW,288,2.0,4.0,14,0.00,,---,0.00,21.00,VWS V14.00,2013-03-06 00:24:00,
2013-03-05 18:29:00,58.8,9.7,30.22,WNW,288,0.0,6.0,14,0.00,,---,0.00,14.00,VWS V14.00,2013-03-06 00:29:00,
2013-03-05 18:34:00,58.3,9.3,30.22,WNW,288,4.0,5.0,14,0.00,,---,0.00,9.00,VWS V14.00,2013-03-06 00:34:00,
2013-03-05 18:39:00,57.8,10.5,30.23,WNW,288,0.0,5.0,15,0.00,,---,0.00,0.00,VWS V14.00,2013-03-06 00:39:00,
2013-03-05 18:44:00,57.4,10.1,30.23,WNW,288,0.0,1.0,15,0.00,,---,0.00,0.00,VWS V14.00,2013-03-06 00:44:00,
2013-03-05 18:49:00,57.0,9.8,30.23,WNW,288,0.0,4.0,15,0.00,,---,0.00,0.00,VWS V14.00,2013-03-06 00:49:00,
2013-03-05 18:54:00,56.6,9.5,30.23,WNW,288,0.0,0.0,15,0.00,,---,0.00,0.00,VWS V14.00,2013-03-06 00:54:00,
2013-03-05 18:59:00,56.2,9.2,30.23,WNW,288,0.0,1.0,15,0.00,,---,0.00,0.00,VWS V14.00,2013-03-06 00:59:00,
2013-03-05 19:04:00,55.7,8.8,30.23,WNW,288,0.0,0.0,15,0.00,,---,0.00,0.00,VWS V14.00,2013-03-06 01:04:00,
2013-03-05 19:09:00,55.2,9.8,30.23,WNW,288,0.0,0.0,16,0.00,,---,0.00,0.00,VWS V14.00,2013-03-06 01:09:00,
2013-03-05 19:14:00,54.7,9.4,30.24,WNW,288,0.0,0.0,16,0.00,,---,0.00,0.00,VWS V14.00,2013-03-06 01:14:00,
2013-03-05 19:19:00,54.1,8.9,30.24,WNW,288,0.0,0.0,16,0.00,,---,0.00,0.00,VWS V14.00,2013-03-06 01:19:00,
2013-03-05 19:24:00,53.6,8.5,30.24,WNW,288,0.0,0.0,16,0.00,,---,0.00,0.00,VWS V14.00,2013-03-06 01:24:00,
2013-03-05 19:29:00,53.2,8.2,30.25,WNW,288,0.0,1.0,16,0.00,,---,0.00,0.00,VWS V14.00,2013-03-06 01:29:00,
2013-03-05 19:34:00,52.7,9.1,30.24,WNW,288,0.0,0.0,17,0.00,,---,0.00,0.00,VWS V14.00,2013-03-06 01:34:00,
2013-03-05 19:39:00,52.2,8.7,30.25,WNW,288,0.0,0.0,17,0.00,,---,0.00,0.00,VWS V14.00,2013-03-06 01:39:00,
2013-03-05 19:44:00,51.7,9.6,30.25,WNW,288,0.0,0.0,18,0.00,,---,0.00,0.00,VWS V14.00,2013-03-06 01:44:00,
2013-03-05 19:49:00,51.4,9.3,30.25,WNW,288,0.0,0.0,18,0.00,,---,0.00,0.00,VWS V14.00,2013-03-06 01:49:00,
2013-03-05 19:54:00,51.0,9.0,30.25,WNW,288,0.0,0.0,18,0.00,,---,0.00,0.00,VWS V14.00,2013-03-06 01:54:00,
2013-03-05 19:59:00,50.5,8.6,30.25,WNW,288,0.0,1.0,18,0.00,,---,0.00,0.00,VWS V14.00,2013-03-06 01:59:00,
2013-03-05 20:04:00,50.1,9.5,30.25,WNW,288,0.0,4.0,19,0.00,,---,0.00,0.00,VWS V14.00,2013-03-06 02:04:00,
2013-03-05 20:09:00,49.8,9.2,30.25,WNW,288,0.0,4.0,19,0.00,,---,0.00,0.00,VWS V14.00,2013-03-06 02:09:00,
2013-03-05 20:14:00,49.5,9.0,30.26,WNW,288,1.0,2.0,19,0.00,,---,0.00,0.00,VWS V14.00,2013-03-06 02:14:00,
2013-03-05 20:19:00,49.0,8.6,30.26,WNW,288,0.0,2.0,19,0.00,,---,0.00,0.00,VWS V14.00,2013-03-06 02:19:00,
2013-03-05 20:24:00,48.7,9.4,30.27,WNW,288,0.0,0.0,20,0.00,,---,0.00,0.00,VWS V14.00,2013-03-06 02:24:00,
2013-03-05 20:29:00,48.5,9.3,30.27,WNW,288,0.0,1.0,20,0.00,,---,0.00,0.00,VWS V14.00,2013-03-06 02:29:00,
2013-03-05 20:34:00,48.3,9.1,30.28,WNW,288,0.0,1.0,20,0.00,,---,0.00,0.00,VWS V14.00,2013-03-06 02:34:00,
2013-03-05 20:39:00,48.1,8.9,30.28,WNW,288,0.0,1.0,20,0.00,,---,0.00,0.00,VWS V14.00,2013-03-06 02:39:00,
2013-03-05 20:44:00,47.9,9.9,30.28,WNW,288,0.0,1.0,21,0.00,,---,0.00,0.00,VWS V14.00,2013-03-06 02:44:00,
2013-03-05 20:49:00,47.7,9.7,30.28,WNW,288,0.0,1.0,21,0.00,,---,0.00,0.00,VWS V14.00,2013-03-06 02:49:00,
2013-03-05 20:54:00,47.5,9.5,30.28,WNW,288,0.0,0.0,21,0.00,,---,0.00,0.00,VWS V14.00,2013-03-06 02:54:00,
2013-03-05 20:59:00,47.4,9.4,30.29,WNW,288,0.0,0.0,21,0.00,,---,0.00,0.00,VWS V14.00,2013-03-06 02:59:00,
2013-03-05 21:04:00,47.3,9.4,30.29,WNW,288,1.0,2.0,21,0.00,,---,0.00,0.00,VWS V14.00,2013-03-06 03:04:00,
2013-03-05 21:09:00,47.1,10.2,30.29,WNW,288,0.0,2.0,22,0.00,,---,0.00,0.00,VWS V14.00,2013-03-06 03:09:00,
2013-03-05 21:14:00,46.9,9.0,30.30,WNW,288,0.0,1.0,21,0.00,,---,0.00,0.00,VWS V14.00,2013-03-06 03:14:00,
2013-03-05 21:19:00,46.7,9.9,30.30,WNW,288,0.0,1.0,22,0.00,,---,0.00,0.00,VWS V14.00,2013-03-06 03:19:00,
2013-03-05 21:24:00,46.4,9.6,30.30,WNW,288,1.0,1.0,22,0.00,,---,0.00,0.00,VWS V14.00,2013-03-06 03:24:00,
2013-03-05 21:29:00,46.0,10.3,30.31,WNW,288,0.0,1.0,23,0.00,,---,0.00,0.00,VWS V14.00,2013-03-06 03:29:00,
2013-03-05 21:34:00,45.7,10.0,30.31,WNW,288,0.0,1.0,23,0.00,,---,0.00,0.00,VWS V14.00,2013-03-06 03:34:00,
2013-03-05 21:39:00,45.4,9.8,30.31,WNW,288,0.0,2.0,23,0.00,,---,0.00,0.00,VWS V14.00,2013-03-06 03:39:00,
2013-03-05 21:44:00,45.1,9.5,30.32,WNW,288,1.0,1.0,23,0.00,,---,0.00,0.00,VWS V14.00,2013-03-06 03:44:00,
2013-03-05 21:49:00,44.9,10.3,30.32,WNW,288,0.0,4.0,24,0.00,,---,0.00,0.00,VWS V14.00,2013-03-06 03:49:00,
2013-03-05 21:54:00,44.7,10.1,30.32,WNW,288,0.0,1.0,24,0.00,,---,0.00,0.00,VWS V14.00,2013-03-06 03:54:00,
2013-03-05 21:59:00,44.4,9.9,30.32,WNW,288,0.0,2.0,24,0.00,,---,0.00,0.00,VWS V14.00,2013-03-06 03:59:00,
2013-03-05 22:04:00,44.2,9.7,30.32,WNW,288,0.0,2.0,24,0.00,,---,0.00,0.00,VWS V14.00,2013-03-06 04:04:00,
2013-03-05 22:09:00,44.0,10.4,30.33,WNW,288,0.0,4.0,25,0.00,,---,0.00,0.00,VWS V14.00,2013-03-06 04:09:00,
2013-03-05 22:14:00,43.9,10.4,30.33,WNW,288,0.0,0.0,25,0.00,,---,0.00,0.00,VWS V14.00,2013-03-06 04:14:00,
2013-03-05 22:19:00,43.8,10.3,30.33,WNW,288,0.0,0.0,25,0.00,,---,0.00,0.00,VWS V14.00,2013-03-06 04:19:00,
2013-03-05 22:24:00,43.7,10.2,30.34,WNW,288,0.0,0.0,25,0.00,,---,0.00,0.00,VWS V14.00,2013-03-06 04:24:00,
2013-03-05 22:29:00,43.6,10.1,30.34,WNW,288,0.0,0.0,25,0.00,,---,0.00,0.00,VWS V14.00,2013-03-06 04:29:00,
2013-03-05 22:34:00,43.5,10.9,30.34,WNW,288,0.0,0.0,26,0.00,,---,0.00,0.00,VWS V14.00,2013-03-06 04:34:00,
2013-03-05 22:39:00,43.3,10.7,30.34,WNW,288,0.0,0.0,26,0.00,,---,0.00,0.00,VWS V14.00,2013-03-06 04:39:00,
2013-03-05 22:44:00,43.1,9.7,30.34,WNW,288,0.0,1.0,25,0.00,,---,0.00,0.00,VWS V14.00,2013-03-06 04:44:00,
2013-03-05 22:49:00,43.0,10.5,30.34,WNW,288,0.0,1.0,26,0.00,,---,0.00,0.00,VWS V14.00,2013-03-06 04:49:00,
2013-03-05 22:54:00,42.9,10.4,30.34,WNW,288,0.0,0.0,26,0.00,,---,0.00,0.00,VWS V14.00,2013-03-06 04:54:00,
2013-03-05 22:59:00,42.9,10.4,30.34,WNW,288,0.0,1.0,26,0.00,,---,0.00,0.00,VWS V14.00,2013-03-06 04:59:00,
2013-03-05 23:00:00,42.8,10.3,30.34,WNW,288,0.0,1.0,26,0.00,,---,0.00,0.00,VWS V14.00,2013-03-06 05:00:00,
2013-03-05 23:05:00,42.8,10.3,30.35,WNW,288,0.0,0.0,26,0.00,,---,0.00,0.00,VWS V14.00,2013-03-06 05:05:00,
2013-03-05 23:10:00,42.7,10.2,30.35,WNW,288,0.0,0.0,26,0.00,,---,0.00,0.00,VWS V14.00,2013-03-06 05:10:00,
2013-03-05 23:15:00,42.7,10.2,30.35,WNW,288,0.0,0.0,26,0.00,,---,0.00,0.00,VWS V14.00,2013-03-06 05:15:00,
2013-03-05 23:20:00,42.5,10.1,30.35,WNW,288,0.0,0.0,26,0.00,,---,0.00,0.00,VWS V14.00,2013-03-06 05:20:00,
2013-03-05 23:25:00,42.4,10.0,30.35,WNW,288,0.0,0.0,26,0.00,,---,0.00,0.00,VWS V14.00,2013-03-06 05:25:00,
2013-03-05 23:30:00,42.4,10.0,30.35,WNW,288,0.0,0.0,26,0.00,,---,0.00,0.00,VWS V14.00,2013-03-06 05:30:00,
2013-03-05 23:35:00,42.4,10.0,30.35,WNW,288,0.0,1.0,26,0.00,,---,0.00,0.00,VWS V14.00,2013-03-06 05:35:00,
2013-03-05 23:40:00,42.3,10.7,30.36,WNW,288,0.0,1.0,27,0.00,,---,0.00,0.00,VWS V14.00,2013-03-06 05:40:00,
2013-03-05 23:45:00,42.3,10.7,30.36,WNW,288,0.0,0.0,27,0.00,,---,0.00,0.00,VWS V14.00,2013-03-06 05:45:00,
2013-03-05 23:50:00,42.2,10.6,30.36,WNW,288,0.0,1.0,27,0.00,,---,0.00,0.00,VWS V14.00,2013-03-06 05:50:00,
2013-03-05 23:55:00,42.0,10.5,30.37,WNW,288,0.0,0.0,27,0.00,,---,0.00,0.00,VWS V14.00,2013-03-06 05:55:00,